Date,TemperatureHighF,TemperatureAvgF,TemperatureLowF,DewpointHighF,DewpointAvgF,DewpointLowF,HumidityHigh,HumidityAvg,HumidityLow,PressureMaxIn,PressureMinIn,WindSpeedMaxMPH,WindSpeedAvgMPH,GustSpeedMaxMPH,PrecipitationSumIn
2013-9-1,70.4,67.9,61.2,66.0,60.8,54.0,90,79,68,29.04,28.78,19,6,21,0.00
2013-9-2,67.8,59.5,55.5,55.0,53.5,52.0,92,81,63,29.15,29.03,14,3,14,0.00
2013-9-3,78.3,65.3,54.8,61.0,56.6,53.0,97,76,54,29.14,29.03,8,1,8,0.00
2013-9-4,87.4,73.1,63.0,69.0,63.4,59.0,97,74,49,29.19,29.04,10,2,11,0.00
2013-9-5,79.7,71.7,64.5,69.0,61.5,55.0,88,71,61,29.26,29.13,15,6,15,0.00
2013-9-6,89.2,78.7,71.1,71.0,68.7,66.0,96,74,49,29.14,28.90,6,1,6,0.00
2013-9-7,89.5,79.1,70.1,71.0,68.4,64.0,95,72,49,29.06,28.90,21,4,21,0.00
2013-9-8,73.0,69.5,66.1,67.0,62.3,58.0,87,79,71,29.09,28.92,22,8,22,0.00
2013-9-9,92.5,77.7,69.5,74.0,69.9,66.0,97,80,51,28.93,28.67,18,3,20,0.00
2013-9-10,80.2,72.9,68.3,70.0,65.5,61.0,94,79,55,29.04,28.81,14,3,14,0.00
2013-9-11,81.0,72.6,66.0,64.0,59.4,52.0,90,66,38,29.11,29.03,18,4,18,0.00
2013-9-12,70.9,64.6,56.7,56.0,50.8,47.0,88,63,42,29.28,29.11,20,6,21,0.00
2013-9-13,73.2,61.8,54.5,53.0,47.6,43.0,83,61,41,29.32,29.12,12,2,12,0.00
2013-9-14,71.3,60.8,53.0,57.0,51.5,47.0,96,74,50,29.14,28.93,20,2,20,0.42
2013-9-15,64.5,59.2,54.1,58.0,55.1,48.0,99,87,72,29.36,28.91,16,6,16,0.09
2013-9-16,64.3,55.8,47.7,48.0,45.7,42.0,90,70,53,29.44,29.28,17,6,17,0.00
2013-9-17,65.8,58.4,52.4,60.0,52.7,47.0,98,83,70,29.29,28.98,17,3,17,0.00
2013-9-18,75.4,68.5,60.8,71.0,66.4,60.0,100,94,84,28.98,28.74,15,2,16,0.04
2013-9-19,76.4,70.6,63.6,71.0,67.1,56.0,99,90,77,28.89,28.69,35,3,35,0.10
2013-9-20,63.6,58.2,52.7,57.0,52.9,50.0,95,84,64,28.99,28.85,22,8,22,0.00
2013-9-21,63.6,57.1,48.6,53.0,48.5,46.0,96,74,59,29.05,28.95,8,4,11,0.00
2013-9-22,72.5,61.2,51.1,59.0,52.9,47.0,89,76,59,29.01,28.87,23,8,23,0.00
2013-9-23,71.1,64.4,56.6,56.0,54.2,52.0,86,71,55,28.98,28.89,16,6,16,0.00
2013-9-24,74.3,64.3,54.4,59.0,54.0,50.0,88,71,54,29.01,28.95,13,5,13,0.00
2013-9-25,71.1,63.9,56.5,56.0,54.3,53.0,89,73,56,29.01,28.89,16,5,18,0.00
2013-9-26,77.6,67.8,58.6,62.0,57.9,53.0,84,72,57,28.95,28.85,16,8,20,0.03
2013-9-27,81.0,72.5,67.9,65.0,62.5,61.0,83,72,53,28.96,28.82,19,4,19,0.01
2013-9-28,72.0,62.0,51.9,64.0,55.5,46.0,96,80,71,28.99,28.68,24,5,24,0.06
2013-9-29,74.5,61.4,48.1,52.0,48.1,43.0,87,64,39,29.01,28.82,12,1,12,0.00
2013-9-30,77.1,67.7,59.3,56.0,52.1,49.0,71,58,45,28.84,28.63,8,2,8,0.25